| time (UTC) | temp F | wind direction | speed knots | gust knots | rain 1hr in | rain 24hr in | rain mn in | humidity % | barometer mb |
| 20260502123100 | 49 | 63 | 0.0 | 0.0 | 0.00 | 0.00 | 0.00 | 90 | 1015.2 |
| 20260502121549 | 49 | 64 | 0.0 | 0.0 | 0.00 | 0.00 | 0.00 | 90 | 1015.1 |
| 20260502114549 | 50 | 64 | 0.0 | 0.0 | 0.00 | 0.00 | 0.00 | 89 | 1015.2 |
| 20260502113050 | 50 | 64 | 0.0 | 0.0 | 0.00 | 0.00 | 0.00 | 89 | 1015.5 |
| 20260502111546 | 50 | 64 | 0.0 | 4.3 | 0.00 | 0.00 | 0.00 | 88 | 1015.1 |
| 20260502110045 | 51 | 71 | 0.0 | 2.6 | 0.00 | 0.00 | 0.00 | 88 | 1015.2 |
| 20260502104531 | 51 | 60 | 0.0 | 2.6 | 0.00 | 0.00 | 0.00 | 88 | 1015.2 |
| 20260502103022 | 51 | 61 | 0.0 | 4.3 | 0.00 | 0.00 | 0.00 | 87 | 1015.1 |
| 20260502101504 | 51 | 17 | 1.7 | 5.2 | 0.00 | 0.00 | 0.00 | 87 | 1014.8 |
| 20260502071534 | 55 | 63 | 0.0 | 0.0 | 0.00 | 0.00 | 0.00 | 79 | 1015.9 |
| 20260502070044 | 55 | 63 | 0.0 | 0.0 | 0.00 | 0.00 | 0.00 | 79 | 1015.8 |
| 20260502064531 | 55 | 63 | 0.0 | 0.0 | 0.00 | 0.00 | 0.00 | 77 | 1015.8 |
| 20260502063032 | 56 | 63 | 0.0 | 0.0 | 0.00 | 0.00 | 0.00 | 77 | 1015.9 |
| 20260502061507 | 56 | 67 | 0.0 | 2.6 | 0.00 | 0.00 | 0.00 | 76 | 1015.7 |
| 20260502060004 | 57 | 67 | 0.0 | 0.0 | 0.00 | 0.00 | 0.00 | 74 | 1015.7 |
| 20260502054544 | 57 | 67 | 0.0 | 0.0 | 0.00 | 0.00 | 0.00 | 73 | 1015.4 |
| 20260502053049 | 58 | 67 | 0.0 | 0.9 | 0.00 | 0.00 | 0.00 | 72 | 1015.4 |
| 20260502051527 | 59 | 71 | 0.0 | 0.0 | 0.00 | 0.00 | 0.00 | 71 | 1015.3 |
| 20260502050019 | 59 | 71 | 0.0 | 2.6 | 0.00 | 0.00 | 0.00 | 70 | 1015.3 |
| 20260502044506 | 60 | 92 | 0.0 | 1.7 | 0.00 | 0.00 | 0.00 | 70 | 1015.2 |
| 20260502043007 | 60 | 306 | 0.0 | 0.0 | 0.00 | 0.00 | 0.00 | 70 | 1015.0 |
| 20260502041601 | 61 | 306 | 0.0 | 0.0 | 0.00 | 0.00 | 0.00 | 67 | 1014.8 |
| 20260502040057 | 62 | 306 | 0.0 | 4.3 | 0.00 | 0.00 | 0.00 | 65 | 1014.6 |
| 20260502034553 | 63 | 303 | 0.0 | 0.0 | 0.00 | 0.00 | 0.00 | 66 | 1014.3 |
| 20260502033058 | 64 | 306 | 0.0 | 0.0 | 0.00 | 0.00 | 0.00 | 66 | 1014.1 |
| 20260502031550 | 65 | 311 | 0.0 | 4.3 | 0.00 | 0.00 | 0.00 | 64 | 1013.9 |
| 20260502030054 | 66 | 286 | 0.0 | 4.3 | 0.00 | 0.00 | 0.00 | 62 | 1013.7 |
| 20260502024535 | 67 | 310 | 0.0 | 3.5 | 0.00 | 0.00 | 0.00 | 62 | 1013.5 |
| 20260502023017 | 69 | 318 | 0.0 | 0.9 | 0.00 | 0.00 | 0.00 | 59 | 1013.3 |
| 20260502021556 | 70 | 325 | 0.9 | 3.5 | 0.00 | 0.00 | 0.00 | 58 | 1013.2 |
| 20260502020052 | 71 | 105 | 0.0 | 4.3 | 0.00 | 0.00 | 0.00 | 61 | 1013.0 |
| 20260502014538 | 72 | 82 | 2.6 | 7.0 | 0.00 | 0.00 | 0.00 | 60 | 1012.9 |
| 20260502013029 | 74 | 41 | 0.9 | 6.1 | 0.00 | 0.00 | 0.00 | 59 | 1012.8 |
| 20260502011508 | 75 | 48 | 1.7 | 5.2 | 0.00 | 0.00 | 0.00 | 55 | 1012.8 |
| 20260502010006 | 76 | 48 | 0.0 | 2.6 | 0.00 | 0.00 | 0.00 | 54 | 1012.8 |
| 20260502004608 | 76 | 38 | 2.6 | 7.8 | 0.00 | 0.00 | 0.00 | 53 | 1012.9 |
| 20260502003050 | 76 | 28 | 1.7 | 7.0 | 0.00 | 0.00 | 0.00 | 52 | 1013.0 |
| 20260502001547 | 77 | 56 | 1.7 | 9.6 | 0.00 | 0.00 | 0.00 | 51 | 1012.9 |
| 20260502000045 | 78 | 56 | 0.9 | 6.1 | 0.00 | 0.00 | 0.00 | 45 | 1012.9 |
| 20260501234543 | 79 | 22 | 1.7 | 6.1 | 0.00 | 0.00 | 0.00 | 43 | 1012.9 |
| 20260501233042 | 80 | 42 | 1.7 | 7.0 | 0.00 | 0.00 | 0.00 | 42 | 1012.9 |
| 20260501231539 | 78 | 246 | 0.0 | 2.6 | 0.00 | 0.00 | 0.00 | 45 | 1013.1 |
| 20260501230038 | 78 | 176 | 0.9 | 4.3 | 0.00 | 0.00 | 0.00 | 45 | 1013.3 |
| 20260501224516 | 78 | 112 | 0.0 | 3.5 | 0.00 | 0.00 | 0.00 | 47 | 1013.5 |
| 20260501223014 | 77 | 47 | 0.0 | 3.5 | 0.00 | 0.00 | 0.00 | 49 | 1013.7 |
| 20260501221608 | 78 | 14 | 0.0 | 3.5 | 0.00 | 0.00 | 0.00 | 47 | 1013.8 |
| 20260501220056 | 79 | 96 | 0.0 | 2.6 | 0.00 | 0.00 | 0.00 | 46 | 1014.0 |
| 20260501214538 | 78 | 5 | 1.7 | 3.5 | 0.00 | 0.00 | 0.00 | 47 | 1014.2 |
| 20260501213038 | 77 | 35 | 0.0 | 3.5 | 0.00 | 0.00 | 0.00 | 49 | 1014.3 |
| 20260501211519 | 75 | 11 | 0.0 | 6.1 | 0.00 | 0.00 | 0.00 | 49 | 1014.5 |
| 20260501210021 | 73 | 297 | 0.9 | 4.3 | 0.00 | 0.00 | 0.00 | 51 | 1014.8 |
| 20260501204501 | 72 | 348 | 0.9 | 6.1 | 0.00 | 0.00 | 0.00 | 55 | 1014.9 |
| 20260501203003 | 71 | 237 | 0.0 | 7.0 | 0.00 | 0.00 | 0.00 | 55 | 1015.1 |
| 20260501201610 | 71 | 303 | 0.0 | 5.2 | 0.00 | 0.00 | 0.00 | 56 | 1015.1 |
| 20260501200043 | 70 | 21 | 3.5 | 9.6 | 0.00 | 0.00 | 0.00 | 58 | 1015.3 |
| 20260501194542 | 70 | 302 | 0.0 | 4.3 | 0.00 | 0.00 | 0.00 | 59 | 1015.5 |
| 20260501193023 | 69 | 163 | 0.0 | 3.5 | 0.00 | 0.00 | 0.00 | 59 | 1015.4 |
| 20260501191524 | 68 | 250 | 0.9 | 4.3 | 0.00 | 0.00 | 0.00 | 61 | 1015.5 |
| 20260501190005 | 68 | 355 | 0.0 | 3.5 | 0.00 | 0.00 | 0.00 | 62 | 1015.5 |
| 20260501184513 | 67 | 22 | 1.7 | 6.1 | 0.00 | 0.00 | 0.00 | 63 | 1015.7 |
| 20260501183055 | 65 | 257 | 0.0 | 3.5 | 0.00 | 0.00 | 0.00 | 65 | 1015.8 |
| 20260501181547 | 65 | 257 | 1.7 | 6.1 | 0.00 | 0.00 | 0.00 | 66 | 1015.9 |
| 20260501180029 | 64 | 202 | 0.9 | 4.3 | 0.00 | 0.00 | 0.00 | 67 | 1016.0 |
| 20260501174528 | 63 | 202 | 2.6 | 5.2 | 0.00 | 0.00 | 0.00 | 70 | 1016.1 |
| 20260501173011 | 62 | 196 | 0.0 | 3.5 | 0.00 | 0.00 | 0.00 | 72 | 1016.0 |
| 20260501171511 | 62 | 196 | 0.0 | 0.0 | 0.00 | 0.00 | 0.00 | 73 | 1016.0 |
| 20260501170052 | 61 | 196 | 0.0 | 4.3 | 0.00 | 0.00 | 0.00 | 75 | 1016.0 |
| 20260501164603 | 60 | 196 | 1.7 | 4.3 | 0.00 | 0.00 | 0.00 | 75 | 1016.1 |
| 20260501163034 | 59 | 196 | 0.0 | 0.0 | 0.00 | 0.00 | 0.00 | 77 | 1016.2 |
| 20260501161534 | 59 | 196 | 0.0 | 2.6 | 0.00 | 0.00 | 0.00 | 77 | 1016.4 |
| 20260501160015 | 59 | 196 | 0.9 | 5.2 | 0.00 | 0.00 | 0.00 | 79 | 1016.3 |
| 20260501154517 | 58 | 196 | 0.9 | 4.3 | 0.00 | 0.00 | 0.00 | 80 | 1016.3 |
| 20260501153055 | 57 | 196 | 1.7 | 5.2 | 0.00 | 0.00 | 0.00 | 82 | 1016.2 |
| 20260501151555 | 56 | 196 | 1.7 | 6.1 | 0.00 | 0.00 | 0.00 | 83 | 1016.2 |
| 20260501150043 | 55 | 178 | 0.9 | 5.2 | 0.00 | 0.00 | 0.00 | 85 | 1016.1 |
| 20260501144534 | 54 | 92 | 0.0 | 4.3 | 0.00 | 0.00 | 0.00 | 87 | 1016.0 |
| 20260501143015 | 54 | 70 | 0.0 | 0.0 | 0.00 | 0.00 | 0.00 | 88 | 1015.9 |